Weather past 2 weeks in Mamoutzou, Mayotte

Now
81 °F

Passing clouds.


Feels Like: 86 °F
Forecast: 80 / 85 °F
Wind: 8 mph from South

Location: Dzaoudzi / Pamanzi Mayotte

Current Time: Apr 21, 2015 at 6:59:45 AM

Latest Report: Apr 21, 2015 at 6:30 AM


Visibility: N/A

Pressure: 29.95 "Hg

Humidity: 84%

Dew point: 75 °F

Location of MamoutzouLocation

Historic Weather in Mamoutzou — Graph

°F

Mamoutzou temperature yesterday

Maximum temperature yesterday: 90 °F (at 10:00 AM)
Minimum temperature yesterday: 79 °F (at 12:30 AM)
Average temperature yesterday: 83 °F

Past Weeks' High & Low Weather Summary

 TemperatureHumidityPressure
High90 °F (Apr 7, 2:00 PM)94% (Apr 11, 3:30 AM)30.01 "Hg (Apr 11, 3:30 AM)
Low77 °F (Apr 6, 5:00 AM)59% (Apr 10, 1:30 PM)29.77 "Hg (Apr 7, 3:00 PM)
Average84 °F75%29.89 "Hg
* Reported Apr 6 5:00 AM — Apr 21 5:30 AM, Mamoutzou, Weather by CustomWeather, © 2015

Note: Actual official high and low records may vary slightly from our data, if they occured in-between our weather recording intervals... More about our weather records

Advertising

Mamoutzou weather history for previous 24 hours

 ConditionsComfort  
Time TempWeatherWind HumidityBarometerVisibility
5:30 AM
Tue, Apr 21
79 °FClear.5 mph94%29.92 "Hg10 mi
5:00 AM79 °FWarm.5 mph89%29.89 "HgN/A
4:30 AM79 °FWarm.7 mph89%29.89 "HgN/A
4:00 AM77 °FWarm.No wind94%29.89 "HgN/A
3:30 AM79 °FWarm.2 mph89%29.89 "HgN/A
3:00 AM79 °FWarm.2 mph89%29.89 "HgN/A
2:30 AM79 °FWarm.No wind89%29.89 "HgN/A
2:00 AM79 °FWarm.No wind89%29.89 "HgN/A
1:30 AM79 °FWarm.No wind84%29.89 "HgN/A
1:00 AM79 °FWarm.3 mph84%29.92 "HgN/A
12:30 AM79 °FWarm.3 mph84%29.92 "HgN/A
12:00 AM81 °FWarm.6 mph79%29.92 "HgN/A
11:30 PM
Mon, Apr 20
81 °FWarm.6 mph79%29.95 "HgN/A
11:00 PM81 °FWarm.6 mph84%29.95 "HgN/A
10:30 PM81 °FWarm.5 mph79%29.95 "HgN/A
10:00 PM81 °FWarm.5 mph79%29.95 "HgN/A
9:30 PM81 °FWarm.6 mph84%29.95 "HgN/A
9:00 PM81 °FWarm.3 mph79%29.95 "HgN/A
8:30 PM82 °FWarm.5 mph79%29.95 "HgN/A
8:00 PM82 °FWarm.5 mph79%29.92 "HgN/A
7:30 PM82 °FWarm.3 mph74%29.92 "HgN/A
7:00 PM82 °FWarm.3 mph74%29.92 "HgN/A
6:30 PM82 °FWarm.3 mph74%29.89 "HgN/A
6:04 PM84 °FPassing clouds.3 mph70%29.89 "HgN/A
5:30 PM86 °FPassing clouds.3 mph66%29.89 "HgN/A
5:00 PM86 °FPassing clouds.3 mph70%29.89 "HgN/A
4:30 PM84 °FScattered clouds.3 mph74%29.89 "HgN/A
4:00 PM84 °FScattered clouds.8 mph74%29.89 "HgN/A
3:37 PM84 °FPartly sunny.12 mph74%29.89 "HgN/A
3:00 PM88 °FPartly sunny.8 mph66%29.89 "HgN/A
2:35 PM86 °FPartly sunny.2 mph66%29.89 "HgN/A
2:00 PM86 °FPartly sunny.5 mph66%29.89 "Hg6 mi
1:36 PM88 °FScattered showers. Broken clouds.5 mph62%29.89 "Hg6 mi
1:00 PM90 °FScattered showers. Broken clouds.7 mph63%29.92 "Hg6 mi
12:30 PM88 °FBroken clouds.7 mph62%29.92 "HgN/A
12:00 PM90 °FPartly sunny.5 mph59%29.92 "HgN/A
11:30 AM90 °FBroken clouds.5 mph59%29.95 "HgN/A
11:00 AM88 °FBroken clouds.6 mph62%29.95 "HgN/A
10:41 AM90 °FPartly sunny.5 mph59%29.95 "HgN/A
10:00 AM90 °FPartly sunny.5 mph59%29.95 "HgN/A
9:30 AM88 °FPartly sunny.3 mph62%29.95 "HgN/A
9:00 AM88 °FPartly sunny.2 mph62%29.95 "HgN/A
8:30 AM86 °FBroken clouds.1 mph70%29.95 "HgN/A
8:00 AM86 °FScattered clouds.2 mph70%29.95 "HgN/A
7:30 AM82 °FScattered clouds.No wind79%29.95 "HgN/A
7:00 AM81 °FScattered clouds.2 mph89%29.92 "HgN/A
6:30 AM79 °FScattered clouds.2 mph89%29.92 "HgN/A
6:00 AM79 °FPassing clouds.5 mph89%29.89 "HgN/A
Weather by CustomWeather, © 2015

See weather overviewHow to use our weather pages